TimeCDT,TemperatureF,Dew PointF,Humidity,Sea Level PressureIn,VisibilityMPH,Wind Direction,Wind SpeedMPH,Gust SpeedMPH,PrecipitationIn,Events,Conditions,WindDirDegrees,DateUTC
12:58 AM,67.8,61.5,80,30.00,10.0,North,6.9,-,N/A,,Clear,360,2013-09-02 05:58:00
1:58 AM,66.6,61.5,84,30.02,10.0,NNE,3.5,-,N/A,,Clear,20,2013-09-02 06:58:00
2:58 AM,64.4,60.4,87,30.02,10.0,Calm,Calm,-,N/A,,Clear,0,2013-09-02 07:58:00
3:58 AM,61.5,59.4,93,30.03,10.0,North,-9999.0,-,N/A,,Clear,0,2013-09-02 08:58:00
4:48 AM,59.0,59.0,100,30.04,6.0,North,2.3,-,N/A,,Clear,360,2013-09-02 09:48:00
4:53 AM,57.2,57.2,100,30.04,4.0,North,2.3,-,N/A,,Clear,10,2013-09-02 09:53:00
4:58 AM,57.7,57.6,99,30.04,3.0,NNE,3.5,-,N/A,,Clear,30,2013-09-02 09:58:00
5:03 AM,57.2,57.2,100,30.04,4.0,NNE,3.5,-,N/A,,Clear,30,2013-09-02 10:03:00
5:13 AM,59.0,59.0,100,30.04,10.0,NNE,2.3,-,N/A,,Clear,20,2013-09-02 10:13:00
5:58 AM,60.3,59.9,99,30.05,10.0,North,-9999.0,-,N/A,,Clear,0,2013-09-02 10:58:00
6:58 AM,60.4,60.3,99,30.07,10.0,NNE,2.3,-,N/A,,Clear,30,2013-09-02 11:58:00
7:58 AM,61.9,60.4,95,30.08,10.0,North,5.8,-,N/A,,Clear,10,2013-09-02 12:58:00
8:58 AM,64.9,59.5,83,30.09,10.0,Variable,5.8,-,N/A,,Clear,0,2013-09-02 13:58:00
9:58 AM,68.2,59.0,72,30.11,10.0,North,5.8,-,N/A,,Partly Cloudy,350,2013-09-02 14:58:00
10:58 AM,70.0,54.7,58,30.11,10.0,North,8.1,-,N/A,,Clear,10,2013-09-02 15:58:00
11:58 AM,73.2,57.7,58,30.10,10.0,Variable,6.9,-,N/A,,Clear,0,2013-09-02 16:58:00
12:58 PM,76.5,56.1,49,30.09,10.0,North,8.1,-,N/A,,Clear,10,2013-09-02 17:58:00
1:58 PM,77.5,50.5,39,30.07,10.0,Variable,4.6,-,N/A,,Clear,0,2013-09-02 18:58:00
2:58 PM,79.5,50.5,36,30.06,10.0,NNE,8.1,-,N/A,,Clear,30,2013-09-02 19:58:00
3:58 PM,80.2,51.1,36,30.04,10.0,Variable,5.8,-,N/A,,Clear,0,2013-09-02 20:58:00
4:58 PM,80.1,50.5,36,30.03,10.0,NNE,6.9,-,N/A,,Clear,30,2013-09-02 21:58:00
5:58 PM,79.3,52.3,39,30.03,10.0,NNE,6.9,-,N/A,,Clear,30,2013-09-02 22:58:00
6:58 PM,77.0,53.8,44,30.02,10.0,NNE,6.9,-,N/A,,Clear,20,2013-09-02 23:58:00
7:58 PM,71.6,54.9,55,30.02,10.0,North,4.6,-,N/A,,Clear,10,2013-09-03 00:58:00
8:58 PM,61.2,56.1,83,30.04,10.0,North,1.2,-,N/A,,Clear,10,2013-09-03 01:58:00
9:58 PM,58.8,55.6,89,30.06,10.0,NNE,2.3,-,N/A,,Clear,20,2013-09-03 02:58:00
10:58 PM,57.7,55.4,92,30.05,10.0,East,2.3,-,N/A,,Clear,80,2013-09-03 03:58:00
11:53 PM,55.4,55.4,100,30.04,2.5,Calm,Calm,-,N/A,,Clear,0,2013-09-03 04:53:00
11:58 PM,55.2,54.9,99,30.04,0.8,Calm,Calm,-,N/A,,Clear,0,2013-09-03 04:58:00